This demonstration page uses our WeatherBlox Daily Observations layout. Learn more.

Left ArrowRight Arrow

39.51506, -84.39828

Hourly Observations for April 7, 2017

Temp ( °F °C ) Dew Point ( °F °C ) Humidity (%) Winds ( mph kmh ) Pressure ( in mb ) Visibility ( mi km ) Precip ( " mm )
12:15 am 00:15 Cloudy 40 4.7 31 -0.7 68 68 WNW 9 15 29.85 1011 N/A 0.00 0.00
12:35 am 00:35 Cloudy 40 4.7 30 -1.1 66 66 WNW 13 20 29.88 1012 N/A 0.00 0.00
12:55 am 00:55 Cloudy 40 4.7 29 -1.4 65 65 WNW 12 19 29.88 1012 N/A 0.00 0.00
1:15 am 01:15 Cloudy 40 4.7 29 -1.4 65 65 WNW 12 19 29.88 1012 N/A 0.00 0.00
1:35 am 01:35 Cloudy 40 4.7 29 -1.5 64 64 WNW 13 20 29.88 1012 N/A 0.00 0.00
1:55 am 01:55 Cloudy 40 4.7 29 -1.5 64 64 NW 15 24 29.88 1012 N/A 0.00 0.00
2:15 am 02:15 Cloudy 40 4.7 30 -1.1 66 66 NW 9 15 29.88 1012 N/A 0.00 0.00
2:35 am 02:35 Cloudy 40 4.7 29 -1.5 64 64 NW 8 13 29.88 1012 N/A 0.00 0.00
2:55 am 02:55 Cloudy 40 4.7 29 -1.5 64 64 WNW 12 19 29.88 1012 N/A 0.00 0.00
3:15 am 03:15 Cloudy 40 4.7 29 -1.5 64 64 NW 10 17 29.88 1012 N/A 0.00 0.00
3:35 am 03:35 Cloudy 40 4.7 30 -1.1 66 66 WNW 13 20 29.88 1012 N/A 0.00 0.00
3:55 am 03:55 Cloudy 40 4.3 30 -1.2 68 68 NW 10 17 29.88 1012 N/A 0.00 0.00
4:15 am 04:15 Cloudy 39 4 29 -1.5 68 68 NW 12 19 29.88 1012 N/A 0.00 0.00
4:35 am 04:35 Cloudy 39 4 30 -1.3 69 69 NW 9 15 29.88 1012 N/A 0.00 0.00
4:55 am 04:55 Cloudy 39 4 30 -1.2 69 69 WNW 12 19 29.91 1013 N/A 0.00 0.00
5:15 am 05:15 Cloudy 39 4 30 -1 70 70 WNW 9 15 29.91 1013 N/A 0.00 0.00
5:35 am 05:35 Cloudy 39 4 30 -1.1 70 70 WNW 13 20 29.91 1013 N/A 0.00 0.00
5:55 am 05:55 Cloudy 39 4 29 -1.4 68 68 WNW 9 15 29.91 1013 N/A 0.00 0.00
6:15 am 06:15 Cloudy 39 4 29 -1.5 68 68 WNW 7 11 29.91 1013 N/A 0.00 0.00
6:35 am 06:35 Partly Cloudy 39 4 29 -1.6 67 67 WNW 10 17 29.91 1013 10 16 0.00 0.00
6:55 am 06:55 Mostly Cloudy 39 3.9 29 -1.5 68 68 WNW 9 15 29.91 1013 10 16 0.00 0.00
7:15 am 07:15 Mostly Cloudy 38 3.3 28 -2.1 68 68 W 8 13 29.91 1013 10 16 0.00 0.00
7:35 am 07:35 Partly Cloudy 37 3 28 -2.4 68 68 WNW 7 11 29.94 1014 10 16 0.00 0.00
7:55 am 07:55 Sunny 38 3.2 28 -2.3 68 68 WNW 6 9 29.94 1014 10 16 0.00 0.00
8:15 am 08:15 Sunny 39 4 29 -1.7 67 67 WNW 9 15 29.94 1014 10 16 0.00 0.00
8:35 am 08:35 Sunny 39 4 28 -2.1 65 65 NW 9 15 29.94 1014 10 16 0.00 0.00
8:55 am 08:55 Sunny 39 4 28 -2.4 63 63 WNW 8 13 29.94 1014 10 16 0.00 0.00
9:15 am 09:15 Sunny 39 4 27 -2.7 62 62 NW 13 20 29.94 1014 10 16 0.00 0.00
9:35 am 09:35 Sunny 40 4.6 28 -2.4 61 61 NW 13 20 29.97 1015 10 16 0.00 0.00
9:55 am 09:55 Partly Cloudy 40 4.7 27 -2.8 59 59 NW 13 20 29.97 1015 10 16 0.00 0.00
10:15 am 10:15 Mostly Cloudy 41 5 27 -2.7 58 58 NW 14 22 29.97 1015 10 16 0.00 0.00
10:35 am 10:35 Cloudy 41 5.1 27 -2.9 57 57 NW 10 17 29.97 1015 10 16 0.00 0.00
10:55 am 10:55 Cloudy 42 5.5 26 -3.1 54 54 NW 15 24 29.97 1015 10 16 0.00 0.00
11:15 am 11:15 Mostly Cloudy 42 5.8 27 -3 54 54 NW 16 26 30.00 1016 10 16 0.00 0.00
11:35 am 11:35 Mostly Cloudy 43 6.2 27 -3 52 52 NNW 13 20 30.00 1016 10 16 0.00 0.00
11:55 am 11:55 Partly Cloudy 46 7.9 28 -2 50 50 WNW 17 28 30.00 1016 10 16 0.00 0.00
12:15 pm 12:15 Partly Cloudy 49 9.6 31 -0.8 49 49 WNW 14 22 30.00 1016 10 16 0.00 0.00
12:35 pm 12:35 Partly Cloudy 49 9.6 29 -1.5 46 46 WNW 13 20 30.00 1016 10 16 0.00 0.00
12:55 pm 12:55 Partly Cloudy 49 9.6 29 -1.9 45 45 W 16 26 30.00 1016 10 16 0.00 0.00
1:15 pm 13:15 Partly Cloudy 49 9.7 28 -2.5 43 43 WNW 14 22 30.00 1016 10 16 0.00 0.00
1:35 pm 13:35 Partly Cloudy 51 10.5 28 -2.1 42 42 WNW 15 24 30.00 1016 10 16 0.00 0.00
1:55 pm 13:55 Partly Cloudy 53 11.9 30 -1 41 41 NW 15 24 30.00 1016 10 16 0.00 0.00
2:15 pm 14:15 Partly Cloudy 55 12.5 30 -1 40 40 W 15 24 30.00 1016 10 16 0.00 0.00
2:35 pm 14:35 Partly Cloudy 55 12.5 28 -2.1 36 36 WNW 18 30 30.00 1016 10 16 0.00 0.00
2:55 pm 14:55 Partly Cloudy 55 12.5 26 -3.3 33 33 WNW 17 28 30.00 1016 10 16 0.00 0.00
3:15 pm 15:15 Sunny 55 12.5 25 -3.7 32 32 NW 12 19 30.00 1016 10 16 0.00 0.00
3:35 pm 15:35 Partly Cloudy 55 12.5 26 -3.4 33 33 W 17 28 30.00 1016 10 16 0.00 0.00
3:55 pm 15:55 Partly Cloudy 55 12.5 25 -3.9 32 32 W 10 17 30.00 1016 10 16 0.00 0.00
4:15 pm 16:15 Partly Cloudy 55 12.5 22 -5.4 28 28 WNW 15 24 30.00 1016 10 16 0.00 0.00
4:35 pm 16:35 Sunny 56 13.4 24 -4.6 29 29 WNW 10 17 30.00 1016 10 16 0.00 0.00
4:55 pm 16:55 Sunny 56 13.2 23 -5.1 28 28 WNW 14 22 30.00 1016 10 16 0.00 0.00
5:15 pm 17:15 Sunny 57 13.7 23 -5.2 27 27 NW 14 22 30.00 1016 10 16 0.00 0.00
5:35 pm 17:35 Sunny 57 13.8 20 -6.8 24 24 NW 15 24 30.00 1016 10 16 0.00 0.00
5:55 pm 17:55 Sunny 56 13.3 20 -6.9 24 24 W 13 20 30.00 1016 10 16 0.00 0.00
6:15 pm 18:15 Sunny 55 12.6 19 -7.5 24 24 WNW 14 22 30.00 1016 10 16 0.00 0.00
6:35 pm 18:35 Sunny 55 12.5 18 -7.8 24 24 WNW 14 22 30.00 1016 10 16 0.00 0.00
6:55 pm 18:55 Sunny 55 12.5 19 -7.2 25 25 WNW 8 13 30.00 1016 10 16 0.00 0.00
7:15 pm 19:15 Sunny 55 12.5 17 -8.2 23 23 WNW 12 19 30.03 1017 10 16 0.00 0.00
7:35 pm 19:35 Sunny 55 12.5 21 -6 27 27 WNW 8 13 30.03 1017 10 16 0.00 0.00
7:55 pm 19:55 Sunny 52 11 20 -6.5 29 29 WNW 8 13 30.03 1017 10 16 0.00 0.00
8:15 pm 20:15 Clear 50 10 21 -6.3 31 31 WNW 7 11 30.03 1017 10 16 0.00 0.00
8:35 pm 20:35 Clear 49 9.6 24 -4.7 36 36 W 6 9 30.03 1017 10 16 0.00 0.00
8:55 pm 20:55 Clear 49 9.6 25 -4.1 38 38 W 6 9 30.06 1018 10 16 0.00 0.00
9:15 pm 21:15 Clear 49 9.6 26 -3.4 40 40 W 6 9 30.06 1018 10 16 0.00 0.00
9:35 pm 21:35 Clear 47 8.2 25 -3.8 43 43 W 5 7 30.06 1018 10 16 0.00 0.00
9:55 pm 21:55 Clear 47 8.2 25 -3.9 43 43 WNW 6 9 30.06 1018 10 16 0.00 0.00
10:15 pm 22:15 Clear 47 8.2 24 -4.6 40 40 WNW 3 6 30.06 1018 10 16 0.00 0.00
10:35 pm 22:35 Clear 46 7.7 23 -4.9 41 41 W 5 7 30.06 1018 10 16 0.00 0.00
10:55 pm 22:55 Clear 44 6.5 22 -5.6 42 42 WNW 3 6 30.06 1018 10 16 0.00 0.00
11:15 pm 23:15 Clear 43 6.1 22 -5.8 43 43 Calm 30.06 1018 10 16 0.00 0.00
11:35 pm 23:35 Clear 41 5 24 -4.7 50 50 Calm 30.06 1018 10 16 0.00 0.00
11:55 pm 23:55 Clear 39 4 30 -1.1 70 70 Calm 30.09 1019 10 16 0.00 0.00

Powered by AerisWeather